Location: Drouwen
(52.9559°N, 6.7974°E)
Time: 21:09:37
(UTC+00:00)

CZ-2C R/B - Pass Details

Date: 15 May 2026
Orbit: 332 x 344 km, 97.7° (Epoch: 8 June)

Event Time Altitude Azimuth Distance (km) Brightness Sun altitude
Rises 19:00:08 0° 70° (ENE) 2,117 5.4 2.3°
Enters shadow 19:53:48 -74° 170° (S) 12,637 9.6 -4.4°
Maximum altitude 20:31:34 26° 67° (ENE) 707 3.2 -8.4°
